Location: Melbourne
(37.8120°S, 144.9677°E)
Time: 20:00:57
(UTC+10:00)

ISS - Visible Passes

Search period start: 17 August 2017 00:00
Search period end: 27 August 2017 00:00
Orbit: 401 x 408 km, 51.6° (Epoch: 17 August)

Date Brightness Start Highest point End Pass type
(mag) Time Alt. Az. Time Alt. Az. Time Alt. Az.
17 Aug -1.1 04:54:59 15° SSE 04:54:59 15° SSE 04:56:45 10° ESE visible
17 Aug -3.8 06:28:08 10° SW 06:31:31 90° NW 06:34:51 10° NE visible
18 Aug -2.9 05:37:42 26° SSW 05:39:14 45° SE 05:42:28 10° ENE visible
19 Aug -1.4 04:47:49 23° ESE 04:47:49 23° ESE 04:49:45 10° E visible
19 Aug -2.8 06:20:30 11° WSW 06:23:21 33° NW 06:26:22 10° NNE visible
20 Aug -3.9 05:30:44 60° W 05:31:09 70° NW 05:34:28 10° NE visible
21 Aug -1.1 04:41:04 19° ENE 04:41:04 19° ENE 04:42:09 10° ENE visible
21 Aug -1.7 06:13:46 11° WNW 06:14:58 13° NW 06:16:36 10° NNW visible
22 Aug -1.9 05:24:13 19° N 05:24:13 19° N 05:25:41 10° N visible
25 Aug -2.2 19:21:28 10° NNW 19:23:15 23° NNE 19:23:15 23° NNE visible
26 Aug -1.8 18:30:17 10° NNE 18:32:11 15° NE 18:33:47 11° E visible
26 Aug -1.3 20:05:07 10° WNW 20:06:29 22° WNW 20:06:29 22° WNW visible
